[[{"header":{"parameterUnit":"m.s-1","parameterCategory":1,"la1":30.2991,"la2":30.254,"lo1":-89.0895,"lo2":-89.0444,"dy":0.0017,"dx":0.0017,"nx":28,"ny":28,"refTime":"2023-09-26T03:00:00:Z","depth":0,"parameterNumber":2,"parameterNumberName":"U-component_of_WINDS"},"data":[0,0,0,0,0,0,0,0,0,0,0,0,0,0,0,0,0,0,0,0,0,0,0,0,0,0,0,0,0,0,0,0,0,0,0,0,0,0,0,0,0,0,0,0,0,0,0,0,0,0,0,0,0,0,0,0,0,0,-1.3672,-1.3672,0,-1.3724,-1.3724,-1.3725,-1.3685,-1.3684,-1.3682,-1.368,-1.3737,-1.374,-1.3743,0,0,0,0,0,0,0,0,0,0,0,0,0,-1.3541,-1.3544,-1.3672,-1.3672,-1.3673,-1.3724,-1.3724,-1.3725,-1.3686,-1.3684,-1.3681,-1.3679,-1.3736,-1.374,-1.3743,0,0,0,0,0,0,0,0,0,0,0,0,0,-1.3596,-1.3544,-1.3672,-1.3659,-1.3659,-1.3724,-1.3724,-1.3725,-1.3686,-1.3683,-1.3681,-1.3678,-1.3735,-1.3739,-1.3744,-1.3825,0,0,-1.3758,-1.376,0,0,0,0,0,0,0,0,-1.3593,-1.3601,-1.3661,-1.366,-1.366,-1.3695,-1.3699,-1.3759,-1.3687,-1.3676,-1.368,-1.3677,-1.3726,-1.3731,-1.3746,-1.3827,-1.383,-1.3759,-1.3762,-1.3764,-1.3765,0,0,0,0,0,0,0,-1.3589,-1.3598,-1.3692,-1.3661,-1.3661,-1.3652,-1.3657,-1.371,-1.3715,-1.3677,-1.3674,-1.368,-1.3725,-1.3742,-1.3747,-1.3831,-1.3759,-1.3763,-1.3766,-1.3767,-1.398,-1.3983,0,0,0,0,0,0,-1.3586,-1.3595,-1.3691,-1.3694,-1.3619,-1.3657,-1.3662,-1.3687,-1.3714,-1.3716,-1.3682,-1.3678,-1.3735,-1.3742,-1.3749,-1.3846,-1.3763,-1.3768,-1.3771,-1.3978,-1.3981,-1.3984,0,0,0,0,0,0,-1.3583,-1.3595,-1.3689,-1.3644,-1.3655,-1.3662,-1.3689,-1.3689,-1.3706,-1.3718,-1.3719,-1.3699,-1.3733,-1.3743,-1.3806,-1.3847,-1.377,-1.3774,-1.3974,-1.3979,-1.3983,-1.4039,0,0,0,0,0,0,-1.358,-1.3594,-1.3625,-1.3645,-1.3658,-1.3744,-1.3692,-1.3692,-1.3714,-1.3709,-1.3734,-1.3736,-1.3732,-1.3799,-1.3811,-1.3852,-1.3778,-1.3971,-1.3976,-1.3981,-1.4034,-1.4045,-1.4055,0,0,0,0,0,-1.3575,-1.3639,-1.3626,-1.3638,-1.3696,-1.3746,-1.3754,-1.3747,-1.3717,-1.3748,-1.3756,-1.3735,-1.384,-1.3806,-1.3819,-1.3862,-1.3968,-1.3975,-1.3981,-1.4029,-1.4043,-1.4054,0,0,0,0,0,0,-1.3625,-1.3642,-1.3628,-1.37,-1.3722,-1.374,-1.3778,-1.3762,-1.3794,-1.3788,-1.3779,-1.3786,-1.3852,-1.3863,-1.3825,-1.3942,-1.39,-1.3909,-1.3932,-1.3945,-1.3955,-1.3952,-1.3782,0,0,0,0,0,-1.3644,-1.3683,-1.3696,-1.3758,-1.377,-1.3772,-1.3794,-1.3787,-1.381,-1.382,-1.3832,-1.3856,-1.3894,-1.392,-1.3956,-1.4035,-1.404,-1.4071,-1.4081,-1.409,-1.4098,-1.4141,-1.4155,-1.4005,-1.4005,-1.4005,0,0,-1.3685,-1.3698,-1.3724,-1.3769,-1.3785,-1.3826,-1.3781,-1.3827,-1.3857,-1.3827,-1.3887,-1.3897,-1.3923,-1.3995,-1.4027,-1.4006,-1.414,-1.4098,-1.4104,-1.4109,-1.4149,-1.4163,-1.4175,-1.4009,-1.4009,-1.4008,0,0,-1.378,-1.3794,-1.3847,-1.3864,-1.3889,-1.3889,-1.3902,-1.3922,-1.3927,-1.3987,-1.3965,-1.4002,-1.4069,-1.4088,-1.4107,-1.4208,-1.419,-1.422,-1.4275,-1.4316,-1.4328,-1.4338,-1.4375,-1.4388,-1.4228,-1.4228,-1.4228,0,-1.3827,-1.3888,-1.3877,-1.3924,-1.3945,-1.3918,-1.3972,-1.3989,-1.4025,-1.4041,-1.4016,-1.4099,-1.4114,-1.419,-1.4214,-1.423,-1.4245,-1.4218,-1.4327,-1.4337,-1.4347,-1.4382,-1.4396,-1.4232,-1.4231,-1.4231,-1.4231,0,-1.3945,-1.3988,-1.4028,-1.4062,-1.4087,-1.4138,-1.4136,-1.4162,-1.4152,-1.4156,-1.4218,-1.4235,-1.4274,-1.4291,-1.4283,-1.4366,-1.4352,-1.4328,-1.4286,-1.4365,-1.4398,-1.4411,-1.4237,-1.4236,-1.4234,-1.4234,0,0,-1.4075,-1.4101,-1.4116,-1.4131,-1.4155,-1.4188,-1.4238,-1.4275,-1.4298,-1.4323,-1.4365,-1.4421,-1.4398,-1.442,-1.4413,-1.4449,-1.4529,-1.442,-1.4421,-1.444,-1.4622,-1.4641,-1.4656,-1.4516,-1.4519,-1.4521,-1.462,0,-1.4171,-1.4257,-1.4248,-1.433,-1.4369,-1.4343,-1.4386,-1.4406,-1.4411,-1.4445,-1.445,-1.449,-1.4457,-1.4469,-1.4504,-1.4512,-1.4565,-1.4504,-1.4556,-1.4558,-1.4552,-1.4673,-1.4694,-1.4786,-1.4632,-1.4634,-1.4636,0,-1.4296,-1.4324,-1.4409,-1.4427,-1.4444,-1.4482,-1.4515,-1.4548,-1.4571,-1.4571,-1.4594,-1.4581,-1.4632,-1.4587,-1.4657,-1.4616,-1.4636,-1.4643,-1.4647,-1.4652,-1.4603,-1.4683,-1.4816,-1.483,-1.4656,-1.4654,-1.4653,0,-1.4383,-1.4442,-1.4501,-1.4514,-1.4536,-1.4564,-1.4575,-1.4595,-1.4617,-1.4646,-1.4661,-1.4696,-1.4715,-1.4743,-1.4739,-1.4707,-1.4811,-1.4766,-1.4814,-1.4814,-1.4838,-1.4837,-1.4977,-1.485,-1.4849,-1.4849,-1.4849,0,-1.4493,-1.4546,-1.454,-1.4576,-1.4635,-1.4625,-1.4684,-1.4691,-1.4709,-1.4746,-1.4726,-1.4762,-1.4755,-1.4791,-1.4789,-1.4847,-1.4856,-1.4859,-1.4858,-1.4861,-1.4861,-1.4876,-1.487,-1.4853,-1.4852,-1.4851,-1.4851,0,-1.4601,-1.4598,-1.4661,-1.4676,-1.4681,-1.4724,-1.4737,-1.4772,-1.4774,-1.4822,-1.4832,-1.4836,-1.4877,-1.4876,-1.4924,-1.4922,-1.4994,-1.4985,-1.4987,-1.4985,-1.5033,-1.5029,-1.5189,-1.5209,-1.5068,-1.5069,-1.507,0,-1.4672,-1.4712,-1.4731,-1.4754,-1.4766,-1.4804,-1.4826,-1.4817,-1.4842,-1.4869,-1.4901,-1.494,-1.4971,-1.5038,-1.5046,-1.5082,-1.5074,-1.5127,-1.508,-1.5082,-1.5076,-1.5074,-1.5079,-1.5137,-1.5139,-1.514,-1.5141,0,-1.4798,-1.4794,-1.4827,-1.4859,-1.4886,-1.4911,-1.4934,-1.4955,-1.4948,-1.4977,-1.5018,-1.5042,-1.5089,-1.5129,-1.5163,-1.5175,-1.5158,-1.5156,-1.5169,-1.5174,-1.5173,-1.5175,-1.5013,-1.5153,-1.5152,-1.5151,-1.515,-1.515,-1.489,-1.4925,-1.4943,-1.498,-1.4996,-1.5018,-1.5051,-1.5056,-1.509,-1.5127,-1.512,-1.5166,-1.5187,-1.5231,-1.5246,-1.5283,-1.5264,-1.5283,-1.5288,-1.5293,-1.5299,-1.5166,-1.5289,-1.5288,-1.5288,-1.5288,-1.5287,0,-1.5016,-1.5026,-1.506,-1.5092,-1.5121,-1.51,-1.5125,-1.5151,-1.5191,-1.5212,-1.5242,-1.5289,-1.5327,-1.5337,-1.5373,-1.5401,-1.5394,-1.5411,-1.5409,-1.5413,-1.5313,-1.5298,-1.5416,-1.5416,-1.5416,-1.5416,-1.5416,-1.5416,-1.5085,-1.5142,-1.5141,-1.5206,-1.5216,-1.526,-1.5276,-1.5296,-1.5312,-1.5366,-1.5396,-1.5402,-1.5418,-1.5455,-1.5489,-1.5491,-1.5506,-1.5526,-1.5525,-1.5432,-1.542,-1.5407,-1.5394,-1.5529,-1.5529,-1.5622,-1.5623,-1.5623]},{"header":{"parameterUnit":"m.s-1","parameterCategory":1,"la1":30.2991,"la2":30.254,"lo1":-89.0895,"lo2":-89.0444,"dy":0.0017,"dx":0.0017,"nx":28,"ny":28,"refTime":"2023-09-26T03:00:00:Z","depth":0,"parameterNumber":3,"parameterNumberName":"V-component_of_WINDS"},"data":[0,0,0,0,0,0,0,0,0,0,0,0,0,0,0,0,0,0,0,0,0,0,0,0,0,0,0,0,0,0,0,0,0,0,0,0,0,0,0,0,0,0,0,0,0,0,0,0,0,0,0,0,0,0,0,0,0,0,-2.6561,-2.6562,0,-2.6637,-2.6638,-2.6639,-2.6624,-2.6623,-2.6622,-2.662,-2.6694,-2.6698,-2.6701,0,0,0,0,0,0,0,0,0,0,0,0,0,-2.6399,-2.6403,-2.6561,-2.6562,-2.6563,-2.6637,-2.6638,-2.6639,-2.6625,-2.6623,-2.6621,-2.662,-2.6693,-2.6697,-2.6701,0,0,0,0,0,0,0,0,0,0,0,0,0,-2.6472,-2.6404,-2.6561,-2.6565,-2.6566,-2.6637,-2.6638,-2.6639,-2.6625,-2.6623,-2.6621,-2.6619,-2.6692,-2.6697,-2.6702,-2.6772,0,0,-2.6716,-2.6719,0,0,0,0,0,0,0,0,-2.6468,-2.6478,-2.6563,-2.6564,-2.6566,-2.6619,-2.6608,-2.6684,-2.6625,-2.6602,-2.662,-2.6618,-2.6671,-2.6677,-2.6696,-2.6776,-2.6779,-2.6717,-2.672,-2.6722,-2.6723,0,0,0,0,0,0,0,-2.6463,-2.6474,-2.6591,-2.6564,-2.6566,-2.6561,-2.657,-2.6623,-2.6647,-2.6604,-2.6603,-2.6613,-2.6671,-2.6691,-2.6698,-2.678,-2.6717,-2.6721,-2.6724,-2.6726,-2.6922,-2.6925,0,0,0,0,0,0,-2.6457,-2.647,-2.6588,-2.6593,-2.6511,-2.6566,-2.6575,-2.6604,-2.6646,-2.6651,-2.6614,-2.6612,-2.6684,-2.6692,-2.67,-2.6786,-2.6722,-2.6726,-2.6729,-2.692,-2.6923,-2.6925,0,0,0,0,0,0,-2.6454,-2.6468,-2.6585,-2.6532,-2.6546,-2.6571,-2.6604,-2.6607,-2.6627,-2.6654,-2.6658,-2.6631,-2.6683,-2.6693,-2.6755,-2.6788,-2.6729,-2.6733,-2.6917,-2.6921,-2.6924,-2.6958,0,0,0,0,0,0,-2.6449,-2.6467,-2.6494,-2.6532,-2.6549,-2.664,-2.6606,-2.661,-2.6636,-2.6633,-2.6671,-2.6675,-2.6682,-2.6748,-2.676,-2.6794,-2.6737,-2.6914,-2.6919,-2.6923,-2.6954,-2.6963,-2.697,0,0,0,0,0,-2.6443,-2.65,-2.6496,-2.651,-2.6585,-2.6642,-2.6651,-2.666,-2.6639,-2.6666,-2.6684,-2.6674,-2.6783,-2.6754,-2.6768,-2.6804,-2.6912,-2.6918,-2.6923,-2.6951,-2.6961,-2.697,0,0,0,0,0,0,-2.6464,-2.6505,-2.6501,-2.6572,-2.6604,-2.6639,-2.6675,-2.667,-2.6707,-2.6703,-2.6711,-2.6719,-2.6782,-2.6799,-2.6766,-2.6875,-2.6844,-2.6853,-2.6861,-2.6871,-2.6879,-2.6873,-2.6741,0,0,0,0,0,-2.6477,-2.6521,-2.6554,-2.6613,-2.663,-2.665,-2.6675,-2.6679,-2.6711,-2.6724,-2.6746,-2.6778,-2.6819,-2.6846,-2.6886,-2.6957,-2.6965,-2.6988,-2.6996,-2.7002,-2.7009,-2.7048,-2.7059,-2.6942,-2.6942,-2.6942,0,0,-2.6503,-2.6532,-2.6559,-2.6618,-2.6643,-2.6688,-2.6661,-2.6709,-2.6742,-2.6731,-2.6791,-2.6809,-2.6844,-2.6911,-2.6941,-2.6927,-2.7043,-2.7009,-2.7014,-2.7017,-2.7055,-2.7066,-2.7075,-2.6946,-2.6945,-2.6945,0,0,-2.6575,-2.6601,-2.6654,-2.668,-2.6719,-2.6732,-2.6745,-2.6782,-2.6793,-2.6854,-2.6847,-2.6886,-2.6957,-2.6982,-2.7005,-2.7087,-2.7079,-2.71,-2.714,-2.7178,-2.7187,-2.7195,-2.7225,-2.7235,-2.7107,-2.7107,-2.7107,0,-2.6603,-2.6671,-2.6681,-2.6731,-2.6757,-2.6751,-2.6804,-2.6828,-2.6877,-2.6895,-2.6879,-2.6969,-2.6992,-2.7065,-2.7085,-2.7104,-2.7118,-2.7095,-2.7185,-2.7193,-2.7201,-2.7229,-2.724,-2.7109,-2.7109,-2.7108,-2.7108,0,-2.6704,-2.6751,-2.6789,-2.6839,-2.6869,-2.692,-2.6937,-2.6966,-2.6968,-2.6982,-2.7044,-2.7072,-2.7117,-2.7135,-2.7136,-2.7208,-2.7198,-2.7183,-2.7153,-2.7214,-2.7241,-2.7252,-2.7112,-2.7111,-2.7111,-2.711,0,0,-2.679,-2.6845,-2.6859,-2.6882,-2.6925,-2.6961,-2.7012,-2.7058,-2.7083,-2.7117,-2.7159,-2.722,-2.7207,-2.7233,-2.7237,-2.727,-2.7334,-2.7251,-2.7252,-2.7266,-2.7416,-2.7426,-2.7439,-2.7329,-2.7331,-2.7333,-2.7413,0,-2.6866,-2.6956,-2.6967,-2.7047,-2.7091,-2.7086,-2.713,-2.7161,-2.7176,-2.7215,-2.723,-2.7274,-2.7253,-2.7269,-2.7302,-2.7319,-2.7364,-2.7314,-2.7368,-2.7369,-2.7359,-2.7453,-2.7464,-2.7538,-2.7423,-2.7425,-2.7426,0,-2.6966,-2.7005,-2.7091,-2.7128,-2.7147,-2.7187,-2.723,-2.7267,-2.7302,-2.731,-2.734,-2.7339,-2.7391,-2.7359,-2.7429,-2.7395,-2.7417,-2.7429,-2.7432,-2.7437,-2.7401,-2.746,-2.7562,-2.7573,-2.7443,-2.7441,-2.744,0,-2.702,-2.7094,-2.7155,-2.7175,-2.722,-2.7248,-2.7268,-2.7301,-2.7328,-2.7366,-2.7383,-2.7426,-2.7449,-2.7481,-2.7492,-2.7468,-2.7562,-2.7531,-2.757,-2.757,-2.759,-2.7588,-2.7696,-2.7604,-2.7604,-2.7604,-2.7604,0,-2.7104,-2.7156,-2.718,-2.7217,-2.7276,-2.7287,-2.7344,-2.7363,-2.7392,-2.7432,-2.743,-2.7468,-2.748,-2.7519,-2.7528,-2.7585,-2.7596,-2.7603,-2.7605,-2.7604,-2.7603,-2.7618,-2.7613,-2.7607,-2.7606,-2.7606,-2.7605,0,-2.7174,-2.7192,-2.7258,-2.7297,-2.7308,-2.7349,-2.7381,-2.7417,-2.7432,-2.7483,-2.7495,-2.7518,-2.7565,-2.7579,-2.7634,-2.764,-2.7707,-2.7704,-2.7696,-2.7696,-2.7735,-2.7731,-2.7856,-2.7873,-2.777,-2.7771,-2.7772,0,-2.7226,-2.7267,-2.731,-2.7338,-2.7359,-2.7403,-2.7432,-2.7444,-2.7474,-2.7517,-2.7547,-2.7593,-2.7631,-2.7705,-2.7726,-2.7768,-2.7766,-2.7808,-2.7773,-2.777,-2.7767,-2.7765,-2.7769,-2.7814,-2.7815,-2.7816,-2.7817,0,-2.7317,-2.7324,-2.7366,-2.7411,-2.7445,-2.7481,-2.7515,-2.7538,-2.7555,-2.7588,-2.7636,-2.7666,-2.7723,-2.7769,-2.7812,-2.7832,-2.7827,-2.7828,-2.7839,-2.7838,-2.7832,-2.7836,-2.7714,-2.7824,-2.7824,-2.7823,-2.7823,-2.7822,-2.7379,-2.7415,-2.7452,-2.7499,-2.7526,-2.7559,-2.7595,-2.7615,-2.7656,-2.7705,-2.7709,-2.7761,-2.7795,-2.7853,-2.7875,-2.7915,-2.7903,-2.7919,-2.7923,-2.7927,-2.793,-2.7825,-2.7923,-2.7922,-2.7922,-2.7922,-2.7922,0,-2.747,-2.7494,-2.7537,-2.7586,-2.7622,-2.7617,-2.7655,-2.7685,-2.7732,-2.7764,-2.7802,-2.7858,-2.7902,-2.7927,-2.7972,-2.7999,-2.7998,-2.801,-2.8008,-2.8013,-2.7938,-2.7924,-2.801,-2.801,-2.801,-2.801,-2.801,-2.801,-2.7521,-2.7582,-2.7594,-2.7669,-2.7692,-2.7744,-2.7766,-2.7796,-2.7822,-2.7885,-2.7923,-2.7939,-2.7969,-2.8016,-2.8056,-2.8062,-2.8078,-2.8092,-2.8097,-2.8027,-2.8018,-2.8009,-2.7996,-2.8096,-2.8096,-2.8168,-2.8168,-2.8169]}]]